Effective Sunday, March 17, 2024, the National Weather Service National Data Buoy Center will discontinue its Dial-A-Buoy Interactive Voice Response system. For more information, see Service Change Notice 24-06 (PDF).

Station LNDC1 - 9414763 - Oakland Berth 67, CA Image indicating link to RSS feed of recent meteorological observations for station LNDC1


Conditions at LNDC1 as of
(2:48 am PST)
1048 GMT on 02/25/2024:
     

Click on the graph icon in the table below to see a time series plot of the last five days of that observation.

5-day plot - Wind Direction Wind Direction (WDIR):NNE ( 20 deg true )
5-day plot - Wind Speed Wind Speed (WSPD): 2.9 kts
5-day plot - Wind Gust Wind Gust (GST): 4.1 kts
5-day plot - Atmospheric Pressure Atmospheric Pressure (PRES):30.02 in
5-day plot - Air Temperature Air Temperature (ATMP): 55.2 °F
5-day plot - Wind Speed at 10 Meters Wind Speed at 10 meters (WSPD10M): 3.9 kts
5-day plot - Wind Speed at 20 Meters Wind Speed at 20 meters (WSPD20M): 3.9 kts
5-day plot -  Wind Speed, Wind Gust and Atmospheric Pressure Combined plot of Wind Speed, Gust, and Air Pressure
NOS Water Level Observation Network Water Level
Previous observations
TIME
(PST)
5-day plot - Wind Direction
WDIR
 
5-day plot - Wind Speed
WSPD
kts
5-day plot - Wind Gust
GST
kts
5-day plot - Wave Height
WVHT
ft
5-day plot - Dominant Wave Period
DPD
sec
5-day plot - Average Wave Period
APD
sec
5-day plot - Mean Wave Direction
MWD
 
5-day plot - Atmospheric Pressure
PRES
in
5-day plot - Pressure Tendency
PTDY
in
5-day plot - Air Temperature
ATMP
°F
5-day plot - Water Temperature
WTMP
°F
5-day plot - Dew Point
DEWP
°F
5-day plot - Salinity
SAL
psu
5-day plot - Visibility
VIS
nmi
5-day plot - Tide (above MLLW)
TIDE
ft
2024-02-25 02:42 amNNE 1.9 2.9----30.02- 54.9-----
2024-02-25 02:36 amNNE 1.9 2.9----30.02- 55.2-----
2024-02-25 02:30 amNNE 2.9 2.9----30.02- 55.4-----
2024-02-25 02:24 amNNE 1.9 1.9----30.02- 55.4-----
2024-02-25 02:18 am N 1.0 1.9----30.03- 55.4-----
2024-02-25 02:12 am N 1.9 2.9----30.03- 55.4-----
2024-02-25 02:06 amNNE 1.9 2.9----30.03- 55.4-----
2024-02-25 02:00 am N 1.9 2.9----30.03+0.00 55.4-----
2024-02-25 01:54 amNNE 2.9 2.9----30.03- 55.6-----
2024-02-25 01:48 am N 2.9 2.9----30.03- 55.8-----
2024-02-25 01:42 am N 1.9 2.9----30.03- 55.9-----
2024-02-25 01:36 am N 1.9 2.9----30.03- 56.1-----
2024-02-25 01:30 am N 2.9 4.1----30.03- 56.1-----
2024-02-25 01:24 am N 1.9 1.9----30.03- 56.1-----
2024-02-25 01:18 am N 1.0 1.9----30.03- 56.1-----
2024-02-25 01:12 am N 1.9 2.9----30.03- 56.3-----
2024-02-25 01:06 am N 1.9 2.9----30.03- 56.3-----
2024-02-25 01:00 am N 1.9 2.9----30.03+0.00------
2024-02-25 12:54 am N 1.9 2.9----30.03-------
2024-02-25 12:48 am N 1.9 1.9----30.03- 56.8-----
2024-02-25 12:42 am N 1.9 4.1----30.03- 57.0-----
2024-02-25 12:36 am N 2.9 4.1----30.03- 57.0-----
2024-02-25 12:30 amNNE 2.9 4.1----30.03- 57.0-----
2024-02-25 12:24 amNNE 4.1 5.1----30.03- 57.0-----
2024-02-25 12:18 am N 2.9 5.1----30.03- 57.0-----
2024-02-25 12:12 amNNE 4.1 5.1----30.03- 57.0-----
2024-02-25 12:06 amNNE 2.9 4.1----30.03- 57.2-----
2024-02-25 12:00 amNNE 4.1 5.1----30.03+0.00 57.2-----
2024-02-24 11:54 pmNNE 4.1 5.1----30.03- 57.2-----
2024-02-24 11:48 pmNNE 4.1 5.1----30.03- 57.4-----
2024-02-24 11:42 pmNNE 5.1 5.1----30.03- 57.4-----
2024-02-24 11:36 pmNNE 4.1 5.1----30.03- 57.4-----
2024-02-24 11:30 pmNNE 4.1 5.1----30.03- 57.6-----
2024-02-24 11:24 pmNNE 2.9 5.1----30.03- 57.7-----
2024-02-24 11:18 pmNNE 4.1 5.1----30.02- 57.9-----
2024-02-24 11:12 pmNNE 5.1 6.0----30.03- 58.1-----
2024-02-24 11:06 pmNNE 4.1 5.1----30.03- 58.1-----
2024-02-24 11:00 pmNNE 4.1 5.1----30.03+0.01 58.1-----
2024-02-24 10:54 pmNNE 2.9 4.1----30.02- 58.3-----
2024-02-24 10:48 pmNNE 2.9 4.1----30.03- 58.5-----
2024-02-24 10:42 pmNNE 2.9 5.1----30.03- 58.5-----
2024-02-24 10:36 pmNNE 2.9 6.0----30.03- 58.5-----
2024-02-24 10:30 pm N 4.1 6.0----30.03- 58.6-----
2024-02-24 10:24 pmNNE 4.1 6.0----30.03- 58.6-----
2024-02-24 10:18 pm N 4.1 5.1----30.03- 58.8-----
2024-02-24 10:12 pmNNE 4.1 6.0----30.03- 59.0-----
2024-02-24 10:06 pmNNE 5.1 6.0----30.03- 59.2-----
2024-02-24 10:00 pmNNE 5.1 7.0----30.03+0.02 59.4-----
2024-02-24 09:54 pmNNE 5.1 6.0----30.03- 59.5-----
2024-02-24 09:48 pm NE 5.1 7.0----30.03- 59.9-----
2024-02-24 09:42 pm NE 5.1 7.0----30.04- 60.1-----
2024-02-24 09:36 pm NE 5.1 6.0----30.04- 60.3-----
2024-02-24 09:30 pmNNE 4.1 6.0----30.04- 60.4-----
2024-02-24 09:24 pmNNE 4.1 6.0----30.04- 60.4-----
2024-02-24 09:18 pmNNE 5.1 6.0----30.03- 60.6-----
2024-02-24 09:12 pm NE 2.9 4.1----30.03- 60.8-----
2024-02-24 09:06 pmNNE 2.9 4.1----30.03- 60.8-----
2024-02-24 09:00 pmNNE 1.9 2.9----30.03+0.04 61.0-----
2024-02-24 08:54 pmNNE 1.9 1.9----30.03- 61.0-----
2024-02-24 08:48 pm- 0.0 1.0----30.03-------
2024-02-24 08:42 pm- 0.0 1.0----30.03-------
2024-02-24 08:36 pm NE 1.9 1.9----30.03-------
2024-02-24 08:30 pmNNE 1.0 1.9----30.02- 61.2-----
2024-02-24 08:24 pmNNE 1.9 4.1----30.02- 61.7-----
2024-02-24 08:18 pmNNE 4.1 4.1----30.02- 61.7-----
2024-02-24 08:12 pm N 1.9 2.9----30.02- 61.9-----
2024-02-24 08:06 pm N 1.9 2.9----30.02- 62.1-----
2024-02-24 08:00 pmNNW 1.0 2.9----30.02+0.02 62.4-----
2024-02-24 07:54 pm N 1.9 2.9----30.02- 62.4-----
2024-02-24 07:48 pm N 2.9 4.1----30.01- 62.8-----
2024-02-24 07:42 pm N 1.0 2.9----30.01- 63.1-----
2024-02-24 07:36 pmNNW 2.9 4.1----30.01- 63.3-----
2024-02-24 07:30 pmNNW 2.9 2.9----30.01- 63.3-----
2024-02-24 07:24 pmNNW 1.9 2.9----30.01- 63.3-----
2024-02-24 07:18 pmNNW 1.9 2.9------ 63.3-----
2024-02-24 07:12 pmNNW 1.9 4.1------ 63.5-----
2024-02-24 07:06 pm NW 2.9 4.1------ 63.7-----
2024-02-24 07:00 pm NW 2.9 5.1----30.01+0.01 63.9-----
2024-02-24 06:54 pm NW 5.1 6.0----30.01- 64.4-----
2024-02-24 06:48 pm NW 2.9 5.1----30.01- 64.9-----
2024-02-24 06:42 pmNNW 1.9 2.9----30.01- 65.3-----
2024-02-24 06:36 pmNNW 2.9 2.9----30.01- 64.8-----
2024-02-24 06:30 pm- 0.0 2.9----30.00- 64.8-----
2024-02-24 06:24 pmNNW 2.9 4.1----30.00- 64.6-----
2024-02-24 06:18 pm NW 2.9 5.1----30.00-------
2024-02-24 06:12 pm NW 2.9 5.1----30.00-------
2024-02-24 06:06 pm NW 4.1 5.1----30.00-------
2024-02-24 06:00 pm-------30.00-0.01------
2024-02-24 05:54 pm-------30.00-------
2024-02-24 05:48 pm NW 1.9 4.1----30.00-------
2024-02-24 05:42 pmWNW 2.9 5.1----29.99-------
2024-02-24 05:36 pmNNW 4.1 5.1----29.99-------
2024-02-24 05:30 pmNNW 5.1 6.0----29.99- 67.3-----
2024-02-24 05:24 pmNNW 6.0 8.0----29.99- 67.8-----
2024-02-24 05:18 pmNNW 5.1 7.0----29.99- 68.0-----
2024-02-24 05:12 pmNNW 2.9 5.1----29.99- 68.5-----
2024-02-24 05:06 pm NW 4.1 6.0----29.99- 69.1-----
2024-02-24 05:00 pmWNW 4.1 7.0----29.99-0.02------
2024-02-24 04:54 pm NW 4.1 6.0----30.00-------
2024-02-24 04:48 pm NW 5.1 8.0----30.00-------
2024-02-24 04:42 pm NW 2.9 6.0----30.00-------
2024-02-24 04:36 pmNNW 4.1 6.0----30.00-------
2024-02-24 04:30 pmNNW 5.1 7.0----30.00-------
2024-02-24 04:24 pm NW 4.1 7.0----30.00-------
2024-02-24 04:18 pm NW 5.1 8.0----30.00- 69.6-----
2024-02-24 04:12 pm NW 5.1 8.0----30.00- 69.3-----
2024-02-24 04:06 pmNNW 5.1 7.0----30.00- 69.1-----
2024-02-24 04:00 pmWNW 4.1 6.0----30.00-0.03 69.6-----
2024-02-24 03:54 pmNNW 4.1 7.0----30.00- 69.3-----
2024-02-24 03:48 pmNNW 5.1 8.0----30.00- 69.8-----
2024-02-24 03:42 pmNNW 5.1 8.9----30.01- 69.4-----
2024-02-24 03:36 pm NW 4.1 7.0----30.01- 69.6-----
2024-02-24 03:30 pmWNW 5.1 7.0----30.01-------
2024-02-24 03:24 pm NW 7.0 8.9----30.01-------
2024-02-24 03:18 pm NW 6.0 8.0----30.01- 69.1-----
2024-02-24 03:12 pm NW 5.1 8.0----30.01- 69.3-----
2024-02-24 03:06 pm NW 6.0 8.0----30.01- 69.4-----
2024-02-24 03:00 pm NW 5.1 7.0----30.01-0.05 70.0-----
2024-02-24 02:54 pm NW 4.1 8.0----30.01- 69.8-----
2024-02-24 02:48 pm NW 6.0 8.9----30.01- 69.6-----
2024-02-24 02:42 pm NW 5.1 8.0----30.01- 69.6-----
2024-02-24 02:36 pmWNW 6.0 8.0----30.01- 69.3-----
2024-02-24 02:30 pm NW 6.0 8.9----30.01- 68.9-----
2024-02-24 02:24 pm NW 5.1 8.0----30.02- 68.7-----
2024-02-24 02:18 pm NW 5.1 7.0----30.02-------
2024-02-24 02:12 pm W 5.1 8.0----30.02-------
2024-02-24 02:06 pmWSW 6.0 7.0----30.02-------
2024-02-24 02:00 pmWSW 5.1 6.0----30.02-0.05------
2024-02-24 01:54 pmWSW 5.1 5.1----30.02-------
2024-02-24 01:48 pmWSW 5.1 5.1----30.02- 68.0-----
2024-02-24 01:42 pmWSW 2.9 4.1----30.02- 68.0-----
2024-02-24 01:36 pmWSW 4.1 5.1----30.02- 67.6-----
2024-02-24 01:30 pmWSW 2.9 4.1----30.02- 67.8-----
2024-02-24 01:24 pmWSW 1.9 4.1----30.02- 67.8-----
2024-02-24 01:18 pmWSW 4.1 5.1----30.03- 67.3-----
2024-02-24 01:12 pm SW 4.1 4.1----30.03- 66.9-----
2024-02-24 01:06 pmWSW 4.1 4.1----30.03- 66.6-----
2024-02-24 01:00 pm-------30.03-0.04 66.4-----
2024-02-24 12:54 pm-------30.03- 66.0-----
2024-02-24 12:48 pmWSW 5.1 6.0----30.04-------
2024-02-24 12:42 pm SW 5.1 5.1----30.04-------
2024-02-24 12:36 pmWSW 4.1 4.1----30.04-------
2024-02-24 12:30 pmWSW 4.1 5.1------ 65.1-----
2024-02-24 12:24 pmWSW 5.1 5.1------ 64.8-----
2024-02-24 12:18 pm-------30.05- 64.6-----
2024-02-24 12:12 pm-------30.05- 64.4-----
2024-02-24 12:06 pm-------30.06- 64.2-----
2024-02-24 12:00 pmWSW 4.1 5.1----30.06-0.01 63.7-----
2024-02-24 11:54 amWSW 2.9 4.1----30.06- 63.3-----
2024-02-24 11:48 amWSW 4.1 4.1----30.06- 62.8-----
2024-02-24 11:42 amWSW 4.1 6.0----30.06- 62.6-----
2024-02-24 11:36 amWSW 5.1 6.0----30.06- 61.9-----
2024-02-24 11:30 amWSW 5.1 6.0----30.06- 61.3-----
2024-02-24 11:24 amWSW 5.1 6.0----30.06- 61.2-----
2024-02-24 11:18 amWSW 4.1 5.1----30.06- 61.3-----
2024-02-24 11:12 am SW 2.9 4.1----30.06- 61.2-----
2024-02-24 11:06 am SW 4.1 4.1----30.06- 60.8-----
2024-02-24 11:00 amWSW 2.9 4.1----30.06+0.01------
2024-02-24 10:54 amWSW 4.1 5.1----30.06-------
2024-02-24 10:48 amWSW 4.1 5.1----30.07- 60.1-----
2024-02-24 10:42 am SW 2.9 4.1----30.07- 59.7-----
2024-02-24 10:36 amWSW 2.9 4.1----30.07- 59.2-----
2024-02-24 10:30 amWSW 2.9 4.1----30.06- 58.8-----
2024-02-24 10:24 am SW 2.9 5.1----30.07- 58.6-----
2024-02-24 10:18 amWSW 4.1 6.0----30.07- 58.5-----
2024-02-24 10:12 amWSW 4.1 5.1----30.07- 58.6-----
2024-02-24 10:06 amWSW 4.1 5.1----30.07- 58.6-----
2024-02-24 10:00 am SW 2.9 4.1----30.07-------
2024-02-24 09:54 amWSW 2.9 4.1----30.07-------
2024-02-24 09:48 amWSW 2.9 4.1----30.07-------
2024-02-24 09:42 amWSW 2.9 4.1----30.07-------
2024-02-24 09:36 am W 1.9 2.9----30.07-------
2024-02-24 09:30 amWSW 1.9 4.1----30.07- 57.9-----
2024-02-24 09:24 amWSW 2.9 2.9----30.07- 57.7-----
2024-02-24 09:18 amWSW 1.0 1.9----30.07- 57.7-----
2024-02-24 09:12 am- 0.0 1.9----30.07- 57.9-----
2024-02-24 09:06 am- 0.0 1.0----30.07- 57.4-----
2024-02-24 09:00 am- 0.0 1.9----30.07+0.01 56.7-----
2024-02-24 08:54 amWSW 1.0 1.9----30.07- 56.5-----
2024-02-24 08:48 am- 0.0 2.9----30.07-------
2024-02-24 08:42 am- 0.0 1.9----30.06-------
2024-02-24 08:36 amSSE 1.9 1.9----30.06-------
2024-02-24 08:30 am- 0.0 1.0----30.06-------
2024-02-24 08:24 am- 0.0 1.9----30.06-------
2024-02-24 08:18 amESE 1.9 2.9------ 54.5-----
2024-02-24 08:12 amESE 1.9 2.9------ 54.3-----
2024-02-24 08:06 amESE 1.9 2.9------ 54.1-----
2024-02-24 08:00 am SE 2.9 2.9----30.05-------
2024-02-24 07:54 amESE 1.0 1.9----30.05-------
2024-02-24 07:48 amESE 1.0 1.9----30.05-------
2024-02-24 07:42 amESE 1.9 4.1----30.05-------
2024-02-24 07:36 amESE 2.9 4.1----30.05-------
2024-02-24 07:30 amESE 1.9 2.9----30.05- 52.5-----
2024-02-24 07:24 amESE 2.9 4.1----30.05- 52.0-----
2024-02-24 07:18 amSSW 1.9 5.1----30.05- 54.1-----
2024-02-24 07:12 am- 0.0 1.0----30.05- 53.2-----
2024-02-24 07:06 amWNW 1.0 2.9----30.04- 52.9-----
2024-02-24 07:00 amWNW 1.9 2.9------------
2024-02-24 06:54 am- 0.0 1.0------------
2024-02-24 06:48 am- 0.0 0.0----30.04-------
2024-02-24 06:42 am- 0.0 1.0----30.04-------
2024-02-24 06:36 am- 0.0 1.0----30.04-------
2024-02-24 06:30 am- 0.0 1.0----30.04- 52.7-----
2024-02-24 06:24 am N 1.0 1.0----30.05- 52.2-----
2024-02-24 06:18 am- 0.0 1.9----30.05- 52.2-----
2024-02-24 06:12 am- 0.0 1.9----30.05- 52.7-----
2024-02-24 06:06 amNNW 1.0 2.9----30.05- 52.5-----
2024-02-24 06:00 amNNW 1.9 2.9----30.05+0.00 52.3-----
2024-02-24 05:54 am N 1.0 1.9----30.05- 52.3-----
2024-02-24 05:48 am- 0.0 1.9------------
2024-02-24 05:42 am- 0.0 2.9------------
2024-02-24 05:36 am N 1.0 2.9------------
2024-02-24 05:30 amNNW 1.0 1.9----30.05-------
2024-02-24 05:24 am N 1.0 1.9----30.05-------
2024-02-24 05:18 am N 1.0 1.9----30.05-------
2024-02-24 05:12 am N 1.9 2.9----30.04-------
2024-02-24 05:06 amNNW 1.9 2.9----30.05-------
2024-02-24 05:00 am--------- 52.7-----
2024-02-24 04:54 am--------- 52.9-----
2024-02-24 04:48 am NW 1.9 2.9----30.05- 53.1-----
2024-02-24 04:42 am NW 1.9 2.9----30.05- 53.2-----
2024-02-24 04:36 am NW 2.9 4.1----30.05- 53.2-----
2024-02-24 04:30 amNNW 1.9 4.1----30.04-------
2024-02-24 04:24 am N 1.9 2.9----30.04-------
2024-02-24 04:18 amNNE 1.9 4.1----30.04-------
2024-02-24 04:12 am N 2.9 4.1----30.05-------
2024-02-24 04:06 am N 2.9 4.1----30.05-------
2024-02-24 04:00 am N 2.9 4.1----30.05-0.02 53.4-----
2024-02-24 03:54 am N 4.1 5.1----30.05- 53.6-----
2024-02-24 03:48 amNNW 4.1 5.1----30.05-------
2024-02-24 03:42 amNNW 1.9 4.1----30.05-------
2024-02-24 03:36 amNNW 4.1 5.1----30.05-------
2024-02-24 03:30 am N 2.9 4.1----30.05- 54.1-----
2024-02-24 03:24 amNNE 2.9 2.9----30.05- 54.1-----
2024-02-24 03:18 am N 1.9 2.9----30.05- 54.3-----
2024-02-24 03:12 am N 2.9 4.1----30.06- 54.5-----
2024-02-24 03:06 am N 1.9 2.9----30.06- 54.5-----
2024-02-24 03:00 am-------30.05-------
2024-02-24 02:54 am-------30.05-------